Location: Caltech
(34.1382°N, 118.1253°W)
Time: 02:12:25
(UTC-07:00)

Daily predictions for brighter satellites

Satellite Brightness Start Highest point End
(mag) Time Altitude Azimuth Time Altitude Azimuth Time Altitude Azimuth
Cosmos 2369 Rocket 3.7 00:40:12 30° NE 00:40:12 30° NE 00:43:01 10° NNE
CZ-2C R/B 4.1 01:04:20 10° N 01:07:08 33° N 01:07:08 33° N
NOSS 3-1 (A) 4.2 01:07:30 10° NNW 01:15:13 66° ENE 01:15:25 66° ENE
Cosmos 1943 Rocket 3.4 01:34:26 37° NNE 01:34:26 37° NNE 01:37:42 10° NNE
Lacrosse 5 3.7 01:37:14 28° N 01:37:14 28° N 01:40:13 10° NNE
ATLAS 2AS CENTAUR R/B 4.2 01:29:15 10° NNW 01:36:37 37° NE 01:40:46 22° E
NOSS 3-1 (C) 4.4 01:40:25 10° NW 01:46:34 55° WNW 01:46:34 55° WNW
Cosmos 2098 Rocket 4.2 02:14:02 70° NNE 02:14:02 70° NNE 02:20:17 10° N
BREEZE-M DEB (TANK) 4.3 02:21:36 63° E 02:21:36 63° E 02:24:46 10° NE
Cosmos 2369 Rocket 4.3 02:21:59 15° NW 02:21:59 15° NW 02:25:11 10° NNW
Cosmos 2219 3.7 02:22:31 10° NNW 02:27:36 55° NE 02:27:36 55° NE
SeaSat 1 4.4 02:36:06 19° NW 02:36:06 19° NW 02:37:37 10° NW
ATLAS CENTAUR R/B 4.4 02:35:02 11° ESE 02:35:02 11° ESE 02:35:54 10° E
SL-08 R/B 4.2 02:45:37 47° N 02:45:37 47° N 02:49:03 10° N
CZ-2D R/B 3.9 02:40:54 10° NE 02:45:10 23° E 02:46:14 22° ESE
IRS-1C 4.4 02:43:29 10° NNE 02:48:16 65° ENE 02:48:16 65° ENE
ARIANE 5 R/B 3.7 02:46:01 10° NNE 02:50:39 34° E 02:50:51 34° ESE
Cosmos 2208 Rocket 4.4 02:53:22 57° N 02:53:22 57° N 02:57:37 10° NNE
Cosmos 1464 Rocket 4.4 02:53:50 48° SE 02:54:54 54° E 03:01:00 10° NNE
Spot 4 Rocket 4.4 02:51:57 10° NNE 02:56:49 58° E 02:56:49 58° E
NOSS 3-3 (A) 4.3 03:01:52 52° WNW 03:02:18 53° NW 03:08:46 10° NNE
NOSS 3-3 (C) 4.2 03:01:58 53° WNW 03:02:24 54° NW 03:08:52 10° NNE
IRAS Rocket 4.2 02:57:08 10° N 03:02:31 72° NW 03:02:31 72° NW
Cosmos 2233 Rocket 4.2 03:04:09 53° WNW 03:04:09 53° WNW 03:09:51 10° N
Cosmos 2346 Rocket 4.3 03:02:07 10° N 03:08:23 80° W 03:08:50 75° SW
IRS-1D 4.1 03:03:58 10° NNE 03:08:44 46° E 03:09:04 45° ESE
CBERS-1 4.5 03:08:40 10° N 03:13:05 49° NW 03:13:05 49° NW
Cosmos 1943 Rocket 4.3 03:15:57 13° WNW 03:16:29 13° NW 03:18:58 10° NNW
OAO 3 Rocket 3.8 03:18:53 46° ESE 03:18:53 46° ESE 03:22:12 10° ESE
GEOS 3 Rocket 4.1 03:15:11 10° SE 03:20:18 58° NE 03:25:23 10° NNW
NPP 4.5 03:17:39 10° N 03:22:20 36° WNW 03:22:20 36° WNW
Cosmos 44 3.9 03:17:32 10° NNW 03:22:35 55° ENE 03:25:30 23° SE
ATLAS 2AS CENTAUR R/B 3.1 03:20:14 10° NW 03:27:46 47° WSW 03:28:04 47° WSW
Cosmos 1513 Rocket 4.4 03:26:38 53° S 03:28:10 83° E 03:34:14 10° N
Cosmos 1707 3.6 03:25:12 10° N 03:28:59 45° E 03:29:14 44° E
ERS-2 3.9 03:33:41 10° N 03:35:42 24° NW 03:35:42 24° NW
SL-16 R/B 2.6 03:34:48 24° SSE 03:38:46 77° ENE 03:44:57 10° N
USA 161 4.2 03:41:07 16° NNW 03:41:07 16° NNW 03:41:48 10° NNW
Cosmos 972 Rocket 3.8 03:36:05 10° NNW 03:41:01 72° WSW 03:41:40 63° SSW
Resurs 1-4 Rocket 2.0 03:36:33 10° NNE 03:41:50 84° ESE 03:43:11 52° S
Cosmos 1891 Rocket 4.3 03:40:41 50° SSW 03:42:21 78° W 03:48:25 10° N
UNK 3.8 03:42:23 41° SSE 03:43:57 75° ENE 03:48:38 10° N
Meteor 2-5 Rocket 3.7 03:39:19 10° N 03:45:12 85° W 03:47:48 36° S
Cosmos 2150 Rocket 4.4 03:42:08 10° N 03:47:19 61° ENE 03:52:24 10° SSE
Cosmos 468 Rocket 3.9 03:50:04 55° SW 03:51:10 74° WNW 03:56:21 10° NNE
Okean O Rocket 3.0 03:47:22 10° NNE 03:51:22 34° E 03:53:46 20° SSE
Cosmos 2034 Rocket 4.0 03:50:41 43° SSW 03:52:46 67° W 03:58:57 10° N
CZ-2D R/B 4.0 03:51:40 10° NNE 03:55:55 58° E 03:57:33 35° SSE
GPS 2-04 Rocket1 2.8 03:57:08 56° SE 03:57:08 56° SE 04:00:35 10° E
ASTRO E2 2.9 03:58:05 54° SSE 03:58:05 54° SSE 04:01:46 10° E
BREEZE-M DEB (TANK) 1.9 03:58:24 10° NW 04:03:33 70° W 04:03:33 70° W
Cosmos 1656 3.6 04:03:24 37° SSW 04:05:46 85° WNW 04:11:29 10° NNE
MOS 1-B 4.3 04:00:00 10° N 04:05:48 76° WNW 04:08:34 33° SSW
Cosmos 2082 3.6 04:02:11 10° NNW 04:07:49 82° WSW 04:13:25 10° SSE
Cosmos 1898 Rocket 3.4 04:04:23 10° NNW 04:09:44 80° WSW 04:14:55 11° SSE
Cosmos 1697 Rocket 2.7 04:07:33 29° S 04:10:30 77° ESE 04:16:11 10° NNE
ATLAS CENTAUR R/B 1.8 04:11:23 39° SW 04:13:14 77° WNW 04:18:18 10° NNE
Cosmos 1758 4.3 04:10:31 17° SSE 04:13:16 44° E 04:17:07 10° NNE
Cosmos 1766 3.2 04:12:39 48° SSW 04:13:39 72° W 04:17:37 10° N
SME Rocket 4.1 04:14:26 34° SW 04:16:01 44° W 04:22:24 10° NNW
Cosmos 1980 Rocket 2.9 04:12:34 17° S 04:16:42 50° ESE 04:22:08 10° NNE
Nadezhda 4 Rocket 3.9 04:11:36 10° N 04:17:46 77° W 04:23:38 12° S
SL-8 R/B 3.5 04:16:16 10° NW 04:21:03 76° SW 04:25:48 10° SE
Cosmos 1953 2.8 04:18:51 20° S 04:21:29 60° E 04:25:29 10° NNE
Cosmos 1076 Rocket 3.5 04:17:25 10° N 04:21:47 83° E 04:25:36 13° S
NOSS 2-1 (D) 4.4 04:20:52 27° W 04:21:53 31° NW 04:25:41 10° NNE
Cosmos 2227 Rocket 2.2 04:16:31 10° NNW 04:22:03 57° WSW 04:27:34 10° S
NOSS 2-1 (C) 4.4 04:21:52 27° W 04:22:55 31° NW 04:26:44 10° NNE
Cosmos 220 Rocket 4.1 04:20:27 10° NNW 04:24:39 51° WSW 04:26:51 25° SSW
Cosmos 405 Rocket 3.9 04:21:49 10° NNW 04:25:07 27° W 04:25:07 27° W
CZ-2D R/B 2.8 04:20:16 10° N 04:25:17 38° WNW 04:27:33 26° WSW
Cosmos 2322 Rocket 4.4 04:21:26 10° SSE 04:25:30 21° E 04:29:33 10° NE
Cosmos 841 Rocket 3.4 04:23:17 25° SSW 04:26:27 86° WNW 04:31:46 10° NNE
UNKNOWN OBJECT B 3.5 04:23:07 10° N 04:26:47 37° WNW 04:27:41 32° WSW
SEDSat Delta rocket 4.0 04:26:16 30° SW 04:27:07 31° SSW 04:31:52 10° SE
NOSS 7 (H) 4.4 04:26:43 37° S 04:27:48 68° ESE 04:31:00 10° NE
Cosmos 1937 Rocket 3.4 04:23:47 10° NNW 04:28:57 75° WSW 04:34:07 10° S
ARIANE 5 R/B 3.8 04:25:32 10° NNW 04:29:33 24° WNW 04:31:12 20° W
Cosmos 1766 Rocket 3.5 04:25:58 10° N 04:30:22 89° ENE 04:34:48 10° S
Cosmos 1408 Rocket 3.4 04:27:12 10° N 04:31:34 80° W 04:35:53 10° S
Thor Agena Rocket 4.3 04:27:36 10° SSE 04:32:31 54° ENE 04:37:25 10° N
MTI 4.2 04:32:52 37° SW 04:33:25 41° W 04:36:33 10° NNW
EO 1 Del DPAF 4.2 04:36:07 26° WSW 04:36:24 27° W 04:39:42 10° NW
Cosmos 1544 4.2 04:33:10 10° SSE 04:36:40 43° E 04:40:10 10° NNE
Cosmos 1763 Rocket 3.6 04:33:50 24° SW 04:36:57 59° WNW 04:42:07 10° N
Cosmos-2242 2.9 04:35:57 19° SSW 04:39:04 76° W 04:43:24 10° N
Cosmos 1634 Rocket 4.0 04:38:04 12° SSW 04:43:45 71° W 04:50:01 10° N
Cosmos 2297 Rocket 2.3 04:38:50 10° NNW 04:44:19 52° WSW 04:49:45 10° S
Delta 7925 Rocket 4.2 04:44:19 21° SW 04:46:40 30° S 04:50:48 10° SE
Meteor 1-24 Rocket 4.2 04:41:50 10° NNW 04:47:07 41° W 04:52:34 10° SSW
Cosmos 1842 Rocket 4.1 04:42:49 10° S 04:47:13 61° E 04:51:39 10° NNE
Aurora 2 Rocket 3.6 04:47:52 16° S 04:48:41 17° S 04:51:08 10° SE
Cosmos 2026 Rocket 4.2 04:43:07 10° N 04:49:29 75° E 04:55:44 10° S
ARGOS Delta rocket 4.0 04:44:39 10° N 04:49:52 89° WNW 04:54:46 10° SSW
NOSS 3-4 (A) 3.9 04:43:18 10° NNW 04:50:25 88° ENE 04:57:56 10° SSE
NOSS 3-4 (C) 3.9 04:43:24 10° NNW 04:50:33 88° ENE 04:58:05 10° SSE
Cosmos 1805 3.3 04:49:05 16° SSW 04:52:02 58° W 04:55:54 10° N
PSLV R/B 4.3 04:49:18 10° NNE 04:53:25 52° E 04:57:34 10° S
Milstar 3 Cent rocket 3.2 04:48:59 17° WSW 04:53:34 57° S 05:04:21 10° E
PAYLOAD B 4.3 04:48:35 10° N 04:54:08 62° WNW 04:59:32 10° SSW
BREEZE-M DEB (TANK) 1.8 04:54:25 27° SW 04:54:25 27° SW 04:56:14 10° SSE
SL-16 R/B 3.6 04:49:53 10° S 04:55:00 36° ESE 05:00:09 10° NE
Cosmos 1437 3.1 04:55:16 10° N 04:58:35 69° E 05:01:54 10° SSE
Cosmos 2195 Rocket 4.4 04:53:37 10° N 04:59:45 78° W 05:05:49 10° S
ADEOS II 2.9 04:54:58 10° NNE 05:00:06 52° E 05:05:12 10° S
OAO 3 Rocket 3.7 04:56:47 12° W 05:00:47 36° SSW 05:05:03 10° SE
CZ-4B R/B 3.1 04:58:13 10° N 05:02:05 49° WNW 05:05:29 12° SSW
Cosmos 1092 Rocket 4.4 04:56:55 10° NNW 05:02:48 44° W 05:08:42 10° SSW
USA 81 4.0 04:57:47 10° S 05:03:02 68° W 05:08:18 10° N
Cosmos 1378 4.4 05:02:02 10° NW 05:05:06 24° W 05:07:37 13° SW
Cosmos 1627 Rocket 4.5 04:58:49 10° N 05:05:07 71° W 05:11:17 10° S
Cosmos 1441 Rocket 4.1 05:03:21 10° NNW 05:06:54 32° W 05:10:28 10° SSW
Feng Yun 1-1 Rocket 4.5 05:03:31 10° NNE 05:09:11 75° ESE 05:14:40 10° S
Meteor 1-21 Rocket 4.3 05:04:48 10° NNW 05:10:42 71° W 05:16:34 10° S
CZ-4B R/B 3.8 05:10:47 10° N 05:15:55 40° WNW 05:20:58 10° SW
Cosmos 1733 3.4 05:12:44 10° S 05:16:30 75° E 05:20:18 10° N
ADEOS Rocket 3.5 05:11:39 10° NNE 05:18:05 75° ESE 05:25:14 10° S
Cosmos 540 Rocket 3.5 05:13:23 10° SSW 05:18:33 75° WNW 05:23:43 10° NNE
Resurs 1-4 Rocket 4.2 05:20:16 10° NW 05:20:53 10° WNW 05:21:32 10° WNW
SL-16 R/B 4.2 05:20:20 10° WSW 05:22:54 13° W 05:25:29 10° WNW
Cosmos 2227 4.4 05:18:12 10° NNW 05:24:00 81° ENE 05:29:44 10° SSE
Okean O Rocket 3.3 05:24:32 10° NNW 05:27:27 18° WNW 05:30:22 10° WSW
BREEZE-M DEB (TANK) 3.9 05:29:52 10° SW 05:45:47 82° NW 05:49:53 10° NE
